User: anonymous   Login
Location: Caltech
(34.1382°N, 118.1253°W)
Time: 10:36:31
(UTC-07:00)
Language:

HO-68 - Orbit

View from above orbital plane
View from above orbital plane
View from above satellite
View from above satellite

Ground track
Ground track

The orbit data is extracted from the following two-line orbital elements,

1 36122U 09072B   18113.21289195 -.00000025  00000-0  44648-4 0  9991
2 36122 100.0789 130.4125 0006904 236.2830 123.7626 13.16344281401410
Epoch (UTC): 23 April 2018 05:06:33
Eccentricity: 0.0006904
inclination: 100.0789°
perigee height: 1193 km
apogee height: 1204 km
right ascension of ascending node: 130.4125°
argument of perigee: 236.2830°
revolutions per day: 13.16344281
mean anomaly at epoch: 123.7626°
orbit number at epoch: 40141

The dashed part of the orbit path shows where the satellite is in the earth's shadow,  

DLR